RH
100 100 100 100 100 100 100 100 100 100 100 100 100 100 100 100 100 100 100 100 100 99 100 99 98 97 95 93 90 88 84 80 75 70 64 61 57 55 54 54 54 56 59 61 63 64 64 62 59 56 51 48 43 40 37 34 32 31 29 28 26 24 22 19 17 13 10 10 9 8 7 6 5 6 5 4 4 4 4 4 4 4 4 4 4
100 100 100 100 100 100 100 100 100 100 100 100 100 100 100 100 100 100 99 100 99 98 98 96 94 92 90 87 83 79 74 69 65 61 58 57 55 56 57 58 61 64 65 66 65 63 60 56 51 47 43 39 36 34 33 31 29 26 24 21 19 17 14 12 10 8 7 6 6 5 5 5 4 4 4 4 4 4 4 4 4 4 4 4 4
100 100 100 100 100 100 100 100 100 100 100 100 100 100 100 100 100 100 99 98 97 96 94 92 90 87 83 79 74 70 66 63 60 59 58 58 59 61 64 66 68 68 67 65 61 56 51 46 42 39 37 35 32 30 27 25 21 18 16 14 12 10 9 8 7 6 5 4 4 4 4 4 4 4 4 4 4 4 4 4 5 4 5 5 4
100 100 100 100 100 100 100 100 100 100 100 100 100 100 100 100 100 99 98 96 94 93 90 88 85 80 76 72 68 65 63 62 61 62 63 65 67 69 70 70 69 66 62 57 51 47 43 40 37 34 32 29 26 23 19 16 14 11 10 8 7 7 6 5 5 4 4 4 4 4 4 4 4 4 4 4 4 5 4 4 5 5 5 5 5
100 99 100 100 100 101 100 100 100 100 100 100 100 100 100 99 98 97 96 94 93 90 86 82 78 74 71 68 67 66 65 66 67 69 71 72 72 72 71 68 64 58 52 47 43 40 38 35 32 28 24 21 17 15 12 10 8 7 6 6 5 5 5 4 5 4 4 4 4 5 5 5 5 5 5 5 5 5 5 5 6 6 6 6 7
100 100 100 100 100 100 100 100 100 100 100 100 100 100 99 98 96 94 93 91 88 85 81 78 75 73 71 70 69 70 71 73 75 76 77 75 72 69 64 59 54 48 44 41 38 36 32 28 25 20 16 13 10 9 8 6 6 5 5 5 5 5 5 4 5 4 5 5 5 5 6 6 6 6 6 6 5 6 6 6 7 8 8 8 9
100 100 100 100 100 100 100 100 100 100 101 100 100 99 97 95 93 91 89 86 84 82 79 77 76 74 74 74 75 77 78 80 81 79 76 71 65 60 54 49 46 42 39 36 32 28 24 19 16 13 10 8 7 6 6 5 5 5 5 5 5 5 5 5 5 5 6 6 6 6 6 7 7 7 7 7 7 8 8 7 8 10 11 10 11
100 100 100 100 100 100 100 100 101 101 100 99 98 96 94 92 91 88 87 84 82 81 79 79 79 79 79 81 82 83 83 81 79 74 68 62 55 50 47 44 40 36 32 27 23 19 15 12 10 8 7 6 5 5 5 5 5 5 5 5 5 5 6 6 6 6 7 7 7 7 8 8 8 8 9 9 9 10 11 11 10 10 11 11 13
100 100 100 100 100 100 101 101 101 100 99 97 95 94 93 91 90 87 85 83 82 82 82 83 84 84 85 86 85 84 81 76 72 66 60 53 48 45 42 37 32 27 22 18 15 11 9 7 6 6 5 5 5 5 5 5 5 5 5 5 6 6 7 7 7 8 8 8 9 9 9 10 10 10 10 11 11 11 12 13 13 12 12 12 15
100 100 100 101 100 101 100 100 99 97 96 96 95 94 93 91 89 88 86 86 86 86 87 87 87 89 88 86 83 79 76 71 65 59 53 48 44 40 35 28 22 18 14 11 9 8 7 6 5 5 5 5 5 5 6 6 6 6 6 6 7 7 8 9 9 9 9 9 10 11 10 10 11 11 11 12 12 12 12 14 14 13 13 13 14
98 99 100 101 100 100 99 98 97 97 97 98 97 96 96 94 92 91 90 91 91 91 90 90 90 91 88 84 79 75 70 64 58 53 47 42 38 31 24 19 15 12 9 8 7 6 6 5 5 5 5 5 6 6 6 7 7 7 7 7 8 8 9 9 10 10 10 10 11 11 11 11 12 13 13 13 13 13 14 15 14 13 14 14 14
96 98 98 99 100 100 100 99 99 99 99 98 98 97 97 96 95 95 94 94 94 93 93 92 91 89 85 81 76 69 63 57 52 45 36 31 28 23 17 13 10 8 7 6 6 6 5 5 6 6 6 6 6 7 7 8 8 9 9 9 9 10 10 10 10 10 11 11 12 13 13 12 13 14 15 14 14 14 15 16 16 15 15 16 16
94 96 97 100 101 100 100 100 100 101 100 99 98 97 98 98 97 97 96 96 95 95 94 92 89 85 80 75 69 62 56 50 42 33 24 20 18 15 11 8 7 6 6 6 6 5 5 6 6 7 7 7 7 7 8 9 10 10 10 11 11 11 12 12 12 12 12 12 13 14 15 15 15 16 16 16 15 15 16 16 16 16 16 17 19
93 96 99 101 100 100 100 100 101 101 100 99 98 98 98 98 98 99 98 97 97 96 94 90 85 79 73 67 61 55 49 41 31 21 15 12 10 9 7 6 6 6 5 6 6 6 6 7 7 7 8 7 8 8 8 10 12 12 13 13 13 13 14 15 15 15 15 15 15 16 18 18 18 18 18 18 17 16 16 16 15 16 16 18 20
91 94 99 101 100 100 100 100 101 101 99 99 99 99 98 98 99 100 99 99 98 96 93 87 80 73 67 61 55 47 39 32 22 13 9 8 7 6 6 6 6 6 6 6 6 6 7 7 7 8 8 8 9 9 10 11 13 15 15 15 15 16 17 18 18 18 18 19 18 19 19 20 20 19 18 18 17 16 17 17 16 17 17 20 22
90 92 97 100 100 100 100 100 101 100 100 100 99 99 100 99 100 100 100 100 99 95 89 82 74 68 61 53 44 35 27 21 14 9 7 6 6 6 5 6 6 6 6 7 7 8 8 8 8 8 9 10 10 10 11 12 14 17 18 18 19 20 20 20 20 20 21 21 21 21 21 21 21 21 20 19 19 18 18 19 20 21 21 23 25
92 93 96 100 101 100 100 100 101 100 100 100 100 100 101 101 101 100 99 99 96 90 83 75 68 61 51 40 30 23 17 12 8 7 6 6 6 6 5 6 6 7 8 8 8 9 9 9 10 10 10 11 11 12 12 13 15 18 17 18 21 23 23 22 23 23 24 24 24 24 23 22 22 22 22 21 21 20 21 21 22 24 25 25 26
95 95 98 100 100 100 100 100 100 101 101 100 101 101 101 101 100 99 98 96 90 83 76 69 60 48 36 26 19 14 10 7 6 6 6 6 6 6 6 6 7 8 8 8 9 10 10 11 12 12 13 13 13 13 13 14 17 18 17 18 22 25 26 25 25 27 27 27 26 25 25 24 23 23 24 24 24 24 24 24 25 27 28 28 28
95 97 100 100 99 99 99 99 100 101 101 101 101 101 100 100 99 98 96 90 84 77 70 58 45 32 23 16 11 9 7 6 6 6 6 7 7 7 7 7 7 8 9 9 10 10 11 13 14 15 15 15 15 15 13 15 19 20 18 19 22 26 27 26 27 28 28 28 28 27 26 25 24 25 26 26 27 27 27 27 28 29 30 31 31
95 98 100 99 99 98 98 99 100 100 101 101 100 100 99 99 99 95 89 83 78 70 56 40 27 19 13 10 7 7 6 6 6 6 6 7 8 8 9 8 8 9 10 10 11 11 13 15 16 16 16 16 17 17 15 15 19 20 19 20 22 25 27 28 29 29 29 29 29 28 27 26 25 26 26 28 30 31 31 32 32 33 33 33 34
94 97 99 99 99 98 98 99 99 100 100 100 99 98 98 98 95 88 83 79 69 53 36 23 16 11 9 7 6 6 6 6 7 7 7 8 9 10 11 10 10 10 11 12 13 13 15 16 17 17 18 18 18 19 18 18 20 21 21 22 23 26 27 29 30 30 30 30 29 28 27 26 26 27 28 30 33 35 36 37 37 38 38 38 37
94 97 99 100 100 99 99 99 99 100 99 98 98 98 96 92 87 83 78 69 51 33 20 14 10 8 7 7 7 7 7 7 7 8 8 9 10 12 12 12 12 12 12 14 15 16 17 18 18 19 19 20 20 20 21 22 23 24 25 25 26 28 29 30 31 32 32 31 30 28 27 26 26 28 31 35 38 40 41 42 43 43 44 44 44
95 98 100 101 100 100 99 98 99 99 98 98 98 95 91 86 83 78 66 48 30 19 13 9 7 7 7 7 7 8 8 8 9 9 10 10 11 11 12 13 13 14 15 16 18 19 19 19 20 21 21 22 22 23 24 25 26 28 28 29 29 30 31 32 32 32 33 33 31 30 28 26 25 27 32 38 42 43 44 45 47 48 48 50 51
96 98 100 101 101 99 98 98 99 99 98 98 94 89 86 83 76 62 44 27 17 12 9 7 7 7 7 7 8 9 9 10 11 11 11 12 11 11 12 13 14 16 18 19 20 21 21 21 22 23 24 24 25 26 26 27 28 30 31 31 32 32 32 33 33 33 33 33 32 31 28 26 26 27 31 38 43 45 46 47 49 50 50 52 55
96 98 99 100 100 100 99 98 98 98 96 92 87 84 82 74 59 40 24 16 12 8 7 7 7 7 8 8 9 10 11 11 12 12 12 12 13 13 14 15 16 18 20 22 22 23 23 23 23 24 26 27 27 28 29 30 30 30 31 31 31 31 31 31 31 31 32 32 32 31 29 27 27 28 31 38 44 46 46 48 51 53 53 54 57
95 95 96 97 99 99 99 98 97 94 89 85 83 80 70 53 35 21 14 10 8 7 7 8 7 8 9 10 10 11 12 12 13 13 13 13 14 15 16 17 19 20 22 23 24 24 24 24 24 25 26 28 29 30 30 30 30 29 29 28 28 29 29 29 29 29 30 30 31 31 30 28 28 29 33 40 47 49 47 47 51 55 56 55 57
93 93 95 96 97 97 97 96 92 88 85 84 79 65 46 30 19 13 10 8 7 7 8 8 9 10 10 11 12 12 12 13 14 14 15 16 16 17 18 19 21 22 22 23 24 25 26 25 25 25 26 28 28 28 28 29 29 29 29 28 28 28 28 28 28 27 27 28 29 30 30 29 29 30 34 42 51 54 52 50 51 54 57 55 54
93 93 93 94 95 95 93 90 87 87 84 75 59 39 25 17 12 9 7 7 8 8 9 9 10 11 11 12 13 13 13 14 15 16 17 18 19 20 21 21 22 23 24 25 25 26 26 25 25 26 26 27 28 29 29 30 30 30 31 31 30 30 29 28 28 27 27 27 28 30 30 29 30 30 33 44 55 58 57 55 54 55 58 57 54
92 92 92 93 92 90 88 87 88 84 71 52 34 22 16 12 9 7 7 8 8 9 10 11 11 12 13 13 13 14 14 15 17 18 19 19 21 22 22 23 24 24 24 25 25 26 26 27 27 28 28 29 30 31 32 33 33 33 33 33 32 32 30 29 28 28 28 28 29 30 31 30 31 32 34 44 57 62 61 60 59 59 61 59 58
93 93 92 91 89 87 87 88 82 66 46 30 20 15 12 8 7 8 8 9 9 10 11 12 12 13 14 14 15 15 16 16 18 20 20 21 23 23 23 24 24 25 25 25 26 28 28 28 29 28 27 27 29 30 32 34 36 37 36 35 34 32 32 31 30 29 30 30 31 32 32 32 33 34 35 44 57 64 65 64 63 64 65 62 60
95 94 91 88 87 88 86 77 60 41 27 19 14 10 8 8 8 9 9 9 10 11 12 13 14 14 15 16 17 17 18 19 20 20 21 22 22 22 23 25 25 26 27 25 25 25 23 22 23 22 20 21 23 25 27 31 35 37 38 38 36 35 34 33 32 32 32 33 35 36 36 36 36 36 37 44 55 64 66 67 69 69 69 67 63
94 91 89 90 89 84 71 52 35 25 18 13 10 8 8 9 9 9 10 11 12 13 14 15 16 16 17 18 19 19 20 21 21 21 21 21 22 23 25 26 25 24 21 18 17 17 15 15 16 17 17 18 19 20 22 26 32 37 39 40 39 39 37 36 35 35 36 36 38 40 41 40 39 39 40 46 55 63 66 69 72 73 72 71 68
91 91 92 90 80 63 44 30 22 17 12 9 9 9 9 10 10 11 12 13 14 15 16 16 17 18 19 20 20 20 21 22 22 23 23 24 25 25 24 22 19 16 14 13 13 14 14 15 16 17 18 18 20 21 21 24 30 35 40 43 44 43 43 41 39 39 40 41 41 43 45 44 43 43 44 49 57 64 67 69 73 75 75 74 71
93 93 88 73 54 37 26 20 16 12 9 9 9 9 10 11 11 13 14 14 15 16 17 18 20 20 21 21 21 21 23 24 26 27 27 26 24 21 17 15 14 13 13 14 14 15 16 17 17 19 20 20 21 22 22 24 28 34 40 45 48 48 48 46 44 44 45 46 47 48 48 48 48 47 47 51 59 66 69 71 74 77 79 77 73
92 81 63 44 30 23 19 15 11 9 9 10 10 10 11 12 13 14 15 16 17 19 20 21 22 22 22 21 22 24 27 29 29 28 24 20 17 15 14 15 15 15 15 15 15 15 16 17 18 19 20 21 22 23 23 24 26 31 38 45 51 54 54 52 50 49 50 52 53 53 52 53 54 54 52 54 62 68 70 73 76 79 82 80 76
71 52 35 26 22 18 14 10 9 9 10 10 10 11 12 13 15 16 17 19 20 21 22 22 22 22 22 23 26 29 30 28 25 21 17 15 15 15 15 15 16 16 16 16 16 16 16 18 19 19 20 22 23 24 25 25 26 30 37 44 52 58 60 58 56 55 56 58 58 57 57 58 60 61 59 59 65 70 71 73 76 80 83 83 80
42 29 24 21 18 13 10 10 10 10 10 11 12 13 14 15 17 18 20 21 22 23 23 22 22 23 24 27 29 28 24 20 18 16 15 15 15 14 15 15 16 16 17 17 17 17 18 19 20 20 22 23 24 25 26 26 26 29 35 43 52 60 65 65 62 60 61 62 63 62 62 64 66 67 64 64 68 72 74 74 76 79 84 86 85
27 23 21 17 13 10 10 10 10 11 12 13 14 15 16 17 19 21 23 24 24 24 24 23 24 26 27 26 24 20 17 16 16 15 15 15 15 15 16 17 17 18 18 18 17 17 19 20 21 22 23 24 25 26 27 28 28 29 33 42 52 62 68 70 69 66 65 65 65 66 67 69 72 72 70 69 72 74 75 76 76 77 81 85 86
23 20 16 12 11 11 11 11 12 13 13 14 16 17 19 20 22 23 25 25 26 25 25 25 28 28 25 21 17 15 16 16 16 15 16 17 18 19 20 19 19 19 18 18 18 18 19 20 21 22 23 25 26 27 28 29 30 30 32 39 48 61 71 75 74 73 70 67 66 69 72 75 77 77 75 76 77 77 77 77 77 77 78 80 83
20 16 12 11 11 11 11 12 14 14 15 17 18 19 21 23 24 26 27 27 26 26 27 29 29 24 19 17 15 15 16 17 17 19 21 21 22 22 22 21 21 20 19 19 19 18 19 21 22 23 24 26 27 29 29 30 31 31 32 35 42 55 69 77 78 79 76 69 66 70 76 80 82 80 80 81 82 81 80 79 79 79 79 78 78
15 13 12 12 12 13 14 15 15 16 18 20 21 22 24 25 27 28 28 27 27 29 30 28 23 18 16 16 16 16 17 20 22 23 24 24 24 23 23 22 22 20 20 20 19 19 20 21 22 24 26 27 28 30 31 32 32 32 33 34 36 46 61 74 81 83 80 71 66 69 78 84 85 83 83 84 85 85 84 83 82 82 81 79 78
13 12 12 13 14 15 15 16 17 19 21 22 23 25 26 27 28 29 28 28 30 30 27 22 18 17 17 16 16 18 21 23 24 24 24 24 24 24 24 23 23 22 21 21 20 20 20 21 23 25 27 28 30 31 32 33 34 34 34 34 34 38 51 68 80 84 82 76 70 71 78 85 87 86 86 87 87 87 88 88 88 87 84 82 81
13 13 14 15 15 16 17 18 20 22 23 24 26 27 28 29 29 29 29 31 30 26 21 18 18 18 18 17 19 22 24 25 25 24 24 24 24 24 24 24 23 23 22 21 21 21 20 21 24 26 28 30 31 32 33 35 35 35 35 35 34 34 43 60 76 84 85 82 77 75 78 82 86 89 90 89 88 89 91 93 94 92 89 87 86
14 15 16 17 17 18 19 21 22 24 25 26 28 29 29 30 30 30 32 31 26 21 19 19 20 20 20 21 23 25 25 25 25 24 24 25 24 24 25 24 24 24 23 22 22 22 21 22 25 28 31 32 32 33 34 36 36 36 35 35 34 33 37 50 66 78 84 86 84 80 78 78 82 88 92 93 92 91 92 96 97 95 94 94 92
16 16 17 18 18 19 21 23 25 27 28 28 29 30 30 30 31 32 32 27 21 19 20 21 20 22 24 24 25 25 25 25 25 25 25 25 25 25 25 24 24 24 24 23 23 22 22 24 27 31 33 34 33 34 36 36 37 37 36 34 34 34 34 41 53 67 80 88 90 86 81 77 78 83 90 94 95 93 94 96 97 96 97 97 94
18 18 19 20 20 21 23 25 27 29 30 30 31 31 30 31 33 33 29 23 20 21 22 21 22 24 25 25 25 25 25 26 27 27 28 27 27 26 25 25 25 25 24 24 24 23 24 26 30 34 37 36 35 35 37 37 38 38 37 35 34 34 34 37 44 57 74 87 91 91 87 81 78 79 84 89 93 94 95 95 96 96 97 97 95
19 20 21 22 23 24 26 28 30 30 31 32 32 32 32 34 34 30 24 21 22 23 23 23 24 25 25 25 26 27 28 29 30 30 31 30 29 28 26 25 25 25 25 24 24 24 25 29 34 38 40 39 37 36 37 38 39 39 38 37 35 34 35 38 43 54 69 80 86 90 90 86 82 80 80 82 87 91 93 93 94 96 96 95 94
22 23 23 24 25 27 28 30 31 32 33 34 33 33 35 36 32 26 22 22 24 24 23 24 25 25 25 27 28 29 31 32 32 32 33 32 31 30 28 26 25 25 25 25 25 25 27 32 39 43 43 42 39 38 37 38 40 41 40 39 38 37 38 42 47 56 66 74 79 85 88 89 88 85 82 81 84 86 87 89 90 92 92 90 90
24 25 26 27 28 30 31 32 33 35 36 35 34 36 38 35 28 23 22 24 25 24 24 25 25 25 27 29 30 31 32 32 32 32 33 33 33 31 29 26 26 26 25 25 25 26 29 36 44 48 48 45 42 40 38 39 41 42 42 42 41 41 43 46 52 59 65 70 74 79 83 87 90 90 89 88 87 85 84 84 84 84 85 84 83
27 28 29 30 31 32 33 35 37 37 36 35 36 39 38 31 24 22 24 25 25 25 25 25 25 27 29 31 32 32 31 31 30 31 32 32 33 32 29 27 27 26 26 26 26 27 32 41 49 52 52 49 46 43 41 41 42 43 44 45 45 45 47 50 54 60 65 68 71 75 78 82 87 89 91 93 92 89 86 83 80 78 78 76 75
30 31 32 33 34 35 37 39 39 37 36 37 41 41 35 26 23 24 26 27 27 26 26 25 26 28 30 31 31 31 30 29 28 28 30 31 33 32 30 28 27 26 26 26 26 28 35 45 53 57 57 55 52 48 45 43 43 44 46 47 48 48 49 52 55 59 63 66 69 72 75 78 81 85 88 91 93 92 89 85 81 77 74 71 69
Wind_Speed
44 43 43 42 41 41 40 40 39 39 38 37 36 34 33 32 31 30 29 28 27 26 26 26 25 25 26 26 26 26 26 26 27 27 27 27 28 28 29 30 31 32 33 35 36 38 39 41 41 42 42 43 43 44 45 45 46 47 48 49 50 50 51 51 51 52 52 53 54 54 55 55 55 55 55 54 53 52 52 52 52 52 52 51 50
40 39 39 38 38 38 37 36 35 34 33 32 31 30 30 29 28 27 26 26 25 25 25 25 25 25 25 26 26 26 26 26 26 27 27 28 28 29 30 32 33 34 35 36 38 39 39 40 41 41 41 42 42 43 44 45 46 47 48 48 49 50 50 50 51 50 51 51 52 53 54 54 54 54 54 53 53 51 51 50 50 50 50 50 49
37 36 36 35 35 34 33 32 31 30 29 28 27 27 26 26 25 25 25 25 25 25 25 24 25 25 25 25 25 25 25 26 26 27 28 29 30 31 32 33 34 35 36 37 38 38 39 39 39 40 40 41 42 43 44 45 45 46 47 48 48 49 49 49 50 50 50 50 51 51 51 51 52 52 52 52 51 50 50 49 48 48 47 47 47
34 33 32 31 31 30 29 28 28 27 26 25 25 24 24 24 24 24 24 24 24 24 24 24 24 24 24 24 24 25 25 26 27 28 29 30 31 32 33 34 35 35 36 36 37 37 38 38 39 40 41 42 42 43 44 44 44 45 46 46 47 47 48 48 48 48 49 49 49 49 49 49 49 50 50 49 49 48 48 48 47 46 45 45 45
30 29 28 28 28 28 27 27 26 25 24 24 23 23 23 24 24 24 23 23 22 22 22 23 23 23 24 24 25 25 26 27 28 29 30 31 32 33 34 34 34 34 35 35 36 37 38 39 39 40 41 41 42 42 43 43 43 44 45 45 46 46 46 46 46 47 47 48 48 47 47 47 47 48 48 48 46 46 45 45 44 44 44 44 44
26 26 26 26 26 25 25 24 24 23 23 23 23 23 23 23 22 22 22 21 21 22 22 23 23 24 24 25 25 26 27 28 28 29 30 31 32 33 33 33 33 34 35 36 37 37 38 39 40 40 40 41 41 41 42 42 42 43 44 44 44 44 44 44 44 44 45 46 46 45 45 45 45 45 45 45 45 44 43 41 41 42 42 42 43
24 24 24 23 23 23 23 23 22 22 22 22 22 22 21 21 21 21 21 22 22 22 23 23 24 24 25 25 26 27 27 28 29 29 30 31 31 32 32 33 33 34 35 36 37 37 38 38 39 39 39 40 40 40 41 42 42 42 42 42 42 42 42 42 42 42 43 43 43 43 43 43 43 42 42 42 42 42 42 41 40 40 41 41 42
22 22 22 22 22 22 22 22 22 22 22 21 21 21 21 21 21 21 22 22 22 23 23 23 24 25 25 26 26 27 27 28 28 29 30 30 31 32 32 33 34 34 35 36 36 37 37 37 38 38 39 39 39 39 40 40 41 41 41 41 41 40 40 40 40 40 40 40 41 40 40 40 40 40 40 40 40 41 41 42 42 42 42 42 43
21 21 21 22 22 22 22 22 22 21 21 21 21 21 21 21 22 22 22 23 23 23 24 24 24 25 25 26 26 27 27 28 28 28 29 31 32 32 33 33 34 34 35 35 36 36 36 37 37 38 38 38 38 38 38 39 40 40 40 40 39 39 38 38 39 39 38 38 38 38 38 38 39 39 39 40 41 41 41 42 43 43 43 43 43
21 21 22 22 23 23 22 21 21 21 21 21 21 21 21 22 22 22 23 23 23 24 24 25 25 25 25 26 26 26 27 27 27 28 29 31 32 33 33 33 33 34 34 35 35 36 36 36 36 37 37 37 37 37 37 38 38 38 38 38 38 37 37 37 37 37 37 36 36 37 37 38 39 40 40 41 41 41 42 43 44 44 44 43 42
22 22 23 23 23 23 22 21 21 21 21 21 21 21 22 22 22 23 23 23 24 24 25 25 25 25 25 26 26 26 26 27 27 28 30 32 33 33 33 33 33 34 34 34 35 35 35 36 36 36 36 36 36 36 36 37 36 36 37 37 37 37 36 36 36 36 35 35 36 38 38 39 40 41 41 41 42 42 42 44 45 45 45 45 44
23 23 24 23 23 23 22 22 22 22 22 22 22 22 22 23 23 23 24 24 24 25 25 25 25 25 25 25 25 26 27 27 28 29 30 32 34 34 33 33 33 33 34 35 35 35 35 35 35 35 35 35 35 35 35 35 35 35 36 36 37 36 36 35 35 35 35 36 37 39 40 40 41 41 42 42 42 43 43 44 45 46 45 46 45
24 24 24 23 23 23 22 22 22 22 23 22 23 23 23 23 24 24 24 25 24 25 25 25 25 25 25 25 26 27 27 28 29 29 29 31 33 33 33 32 32 33 33 34 34 34 34 33 33 33 34 34 34 34 34 33 33 34 35 36 36 35 34 34 36 36 37 37 38 40 41 41 41 42 43 43 43 44 44 45 45 45 45 45 44
24 24 24 23 23 23 22 23 23 23 23 23 23 24 24 24 24 24 24 24 24 24 24 25 25 25 26 27 27 28 29 29 29 28 28 29 31 32 32 31 31 32 32 33 33 33 33 33 33 33 33 33 33 33 33 32 32 32 33 34 34 33 33 34 36 37 38 39 40 41 42 42 42 43 43 44 44 44 45 46 46 46 45 44 44
24 24 24 23 23 23 23 23 23 23 23 24 24 24 24 24 24 23 24 24 24 24 24 24 25 26 27 28 29 30 30 30 30 27 26 28 30 31 31 30 30 31 31 31 32 32 32 33 33 32 32 32 32 32 32 31 30 30 31 32 33 33 34 35 37 38 39 40 41 41 42 42 43 44 44 45 45 45 46 46 47 46 46 44 43
24 24 24 24 23 23 23 23 24 24 25 25 25 25 24 24 23 23 23 23 23 24 24 25 26 27 28 29 30 31 31 31 31 29 26 27 29 31 31 30 30 30 30 30 31 31 31 32 32 32 31 31 32 32 31 30 28 28 29 31 32 33 35 36 38 39 40 41 41 42 43 43 44 44 45 46 46 46 46 46 46 46 45 43 42
24 24 24 24 24 24 24 24 25 25 26 26 25 25 24 24 23 23 23 23 23 24 24 25 26 28 29 29 30 30 30 30 31 30 28 27 29 31 31 30 29 29 29 29 30 30 30 30 30 31 31 31 31 31 31 29 27 28 29 31 32 33 35 37 38 39 40 41 41 42 43 43 43 44 44 45 46 46 46 45 45 44 44 42 41
24 24 24 24 24 24 24 25 26 26 26 25 25 25 24 24 24 24 24 23 23 24 25 26 27 28 29 29 29 30 30 29 30 30 29 28 29 31 31 31 30 29 29 29 29 29 28 28 29 30 30 31 31 31 31 29 28 30 31 32 33 34 35 36 37 38 39 40 41 42 42 43 43 44 44 44 45 45 45 45 45 44 43 42 41
23 24 24 24 24 25 25 26 26 26 26 25 25 24 24 24 24 23 23 23 24 25 26 27 28 28 28 28 29 29 29 29 29 30 29 28 29 31 32 33 32 30 29 28 28 27 27 27 28 29 29 30 31 31 31 30 30 32 34 34 34 35 35 36 36 37 37 38 39 40 41 42 42 42 42 43 43 44 44 45 44 44 43 41 40
23 24 25 25 25 25 26 26 26 25 25 24 24 24 23 23 23 23 23 24 25 26 27 28 28 28 27 27 28 28 28 29 29 29 29 27 27 29 31 32 33 31 29 29 28 27 27 27 27 28 29 29 30 32 33 32 32 34 35 36 36 35 36 36 36 37 37 37 38 38 39 40 40 41 41 41 42 43 43 44 43 42 42 40 39
24 24 24 24 25 25 25 25 25 24 24 24 23 23 23 22 22 23 23 25 26 27 27 27 27 27 27 27 27 27 28 28 28 28 28 27 26 26 28 31 32 31 30 29 28 28 28 28 28 28 29 30 31 32 34 34 35 36 37 37 37 37 37 36 36 37 37 37 37 38 38 39 39 40 40 40 41 42 42 42 42 41 40 39 38
23 23 24 24 25 25 25 24 24 23 23 23 22 22 22 22 23 24 25 26 27 27 27 27 27 27 26 26 27 27 27 27 27 27 27 27 26 25 25 28 29 30 29 29 28 29 29 29 29 29 30 31 32 33 34 35 36 37 37 38 38 38 38 38 37 37 37 37 37 38 39 39 38 38 39 39 40 40 41 40 39 38 37 36 36
23 23 23 24 24 24 24 24 23 23 22 22 22 22 22 23 24 25 26 27 27 27 26 26 26 26 26 26 26 26 26 26 26 26 27 27 26 25 24 25 26 27 28 28 28 29 29 29 30 30 31 32 33 34 35 35 36 37 37 38 39 39 39 39 39 38 38 38 38 38 39 39 38 38 37 37 38 39 39 38 37 35 34 33 33
22 23 23 23 23 23 23 23 22 22 22 22 22 22 23 24 25 27 27 27 27 26 26 25 25 25 25 25 25 25 25 25 26 26 26 26 26 26 25 25 24 25 26 27 28 28 29 30 30 31 31 32 34 35 36 36 37 37 38 38 39 39 39 39 39 39 39 39 38 38 39 39 38 38 37 37 37 38 38 37 35 33 32 31 31
22 22 22 22 22 22 22 21 21 22 22 22 23 23 24 26 27 27 27 27 26 26 25 24 24 24 24 24 24 24 25 25 25 26 26 26 26 26 26 25 25 25 25 26 27 28 29 30 31 32 32 33 34 35 36 37 38 38 39 39 39 39 40 40 39 39 39 38 38 38 38 38 38 38 37 37 37 37 37 36 33 31 30 29 28
21 21 21 21 20 20 21 21 21 22 22 23 24 25 26 27 27 27 26 26 25 25 24 24 24 23 23 23 23 24 24 24 25 25 26 26 25 25 25 25 25 26 26 27 27 28 29 31 32 33 33 34 35 36 36 37 38 39 39 39 39 39 40 39 39 39 38 38 37 37 37 37 37 37 37 36 36 37 37 36 32 30 29 28 26
20 20 20 20 20 20 20 21 21 22 23 24 25 26 27 27 26 26 25 25 24 24 23 23 23 23 23 23 23 23 23 23 24 25 25 25 25 25 25 25 26 27 27 28 29 29 31 32 33 34 35 35 36 36 37 37 37 38 39 39 39 39 39 39 39 38 38 37 37 36 36 36 36 36 36 35 35 36 37 36 33 30 28 27 26
20 20 20 20 20 20 21 21 22 23 24 25 26 26 26 26 25 25 24 24 23 23 23 23 22 22 22 22 22 23 23 22 23 24 24 24 24 24 25 25 26 27 28 29 30 31 32 33 34 35 36 36 36 37 37 38 38 38 38 39 39 39 39 39 38 38 38 37 37 36 35 35 36 36 35 34 34 35 35 35 34 31 29 28 27
20 20 20 20 21 21 22 22 23 24 25 26 26 26 26 25 25 24 23 23 23 22 22 22 22 22 22 22 22 23 22 22 22 23 23 23 23 23 24 25 27 28 29 30 31 32 33 34 35 36 37 37 37 38 38 38 38 38 39 39 39 39 39 39 39 38 38 38 37 36 36 36 36 35 35 34 33 33 34 35 34 32 30 28 28
20 20 20 21 22 22 23 23 24 25 26 26 26 25 25 24 23 23 22 22 22 22 22 21 22 21 21 21 21 21 22 21 21 21 22 22 23 24 25 26 27 29 30 31 32 32 33 34 35 36 38 38 38 38 39 38 38 38 38 39 39 39 39 39 39 38 38 38 38 37 36 36 36 35 35 34 32 31 32 33 33 32 31 29 28
19 20 21 21 22 23 24 25 26 26 26 26 25 24 23 22 22 22 22 21 21 21 21 20 20 20 20 20 19 20 21 21 21 22 22 23 24 24 25 26 27 29 30 31 32 32 34 34 35 36 38 38 38 39 39 38 38 38 37 37 37 38 39 39 38 38 38 38 37 37 37 37 36 35 35 34 33 31 31 32 32 32 31 30 30
20 20 21 21 23 24 25 26 26 26 26 25 24 23 22 21 21 21 21 21 21 20 20 19 19 19 19 19 19 19 20 22 23 23 24 24 25 25 26 26 28 29 31 32 33 33 34 35 35 36 37 38 38 39 39 39 38 38 37 36 36 36 37 38 38 38 38 37 37 37 37 37 36 35 34 34 33 32 31 31 31 31 31 30 31
20 21 21 23 24 25 26 26 26 25 24 23 22 22 21 21 21 21 20 20 20 19 19 18 18 18 19 19 20 20 21 23 24 25 25 26 26 26 27 27 29 30 31 32 33 34 35 35 36 36 37 37 38 38 38 38 38 38 37 36 35 35 35 37 37 37 37 37 36 36 36 36 36 35 34 34 33 32 31 31 31 31 31 31 31
21 22 23 25 26 26 26 25 24 24 23 22 21 21 21 21 20 20 20 19 19 18 18 18 18 19 19 20 20 21 22 23 24 25 26 26 27 27 28 28 29 30 31 32 33 34 35 36 36 36 37 38 38 38 38 38 38 38 37 36 35 34 34 35 36 36 36 36 35 35 36 36 36 36 34 33 33 33 32 32 31 31 31 32 32
23 24 25 26 26 25 24 24 23 22 22 21 21 21 20 20 20 19 19 19 18 18 18 18 18 20 20 20 20 21 22 23 24 25 26 27 27 27 27 27 28 29 31 32 34 35 35 36 36 37 37 38 38 38 38 37 37 37 37 36 35 34 33 34 35 35 35 35 34 35 35 35 35 36 35 34 33 33 32 32 32 32 32 33 33
24 25 25 25 24 24 23 22 21 21 21 21 21 21 20 20 20 19 18 18 18 18 19 19 19 20 21 21 20 21 21 23 24 25 25 26 26 26 26 27 28 29 30 32 34 35 36 37 37 38 38 38 38 38 37 37 36 36 36 36 34 33 32 33 33 34 34 33 33 34 34 35 35 36 35 34 33 33 33 32 32 32 32 33 34
25 25 25 24 23 22 22 21 21 21 21 21 21 20 20 20 19 18 18 18 18 19 20 20 20 21 21 20 19 19 20 21 22 23 24 24 25 26 26 27 28 29 30 32 34 35 36 36 38 39 39 39 39 39 38 37 37 36 36 35 34 33 32 32 32 33 32 32 32 33 33 34 34 35 35 34 33 33 33 33 33 32 32 33 35
24 24 23 23 22 22 21 21 21 21 21 21 20 20 19 19 18 18 18 18 19 20 20 21 21 21 21 19 18 18 18 19 20 22 23 24 25 26 27 28 29 29 30 32 33 34 35 35 36 37 38 38 38 38 38 38 37 36 36 35 34 32 32 31 32 32 32 31 32 32 33 33 33 34 35 34 34 33 33 33 33 33 33 33 35
24 24 23 22 22 22 22 21 21 21 20 20 20 19 19 18 18 18 18 19 19 20 20 21 22 21 21 20 19 18 18 18 20 21 23 24 26 27 28 29 30 31 32 33 34 35 35 35 36 36 37 37 37 37 37 37 37 36 36 35 33 32 31 31 31 31 31 31 31 32 32 32 32 33 34 34 34 34 34 33 34 34 34 34 35
24 23 23 22 22 21 21 21 21 20 20 20 19 19 18 18 18 18 18 19 20 20 20 21 21 21 20 19 19 18 18 19 20 22 23 24 26 28 29 31 32 33 34 35 36 36 37 37 37 36 36 36 36 36 36 36 36 36 36 35 34 32 31 31 31 31 31 31 31 31 31 31 32 32 33 33 34 34 34 34 34 35 36 36 36
23 22 22 21 21 21 20 20 20 20 19 19 19 18 18 18 18 18 19 19 20 20 20 20 20 20 20 19 18 18 18 19 20 21 23 24 26 27 29 31 33 34 35 36 37 37 38 37 37 36 36 35 35 36 36 36 36 36 36 35 34 32 31 31 31 31 31 31 31 30 30 31 31 32 32 32 33 34 34 35 35 35 36 37 37
21 21 21 21 21 20 20 20 20 19 19 19 19 18 18 18 18 19 19 19 19 19 19 19 19 19 19 19 19 19 19 19 20 21 23 24 26 27 29 31 32 34 35 36 37 38 38 38 37 36 36 35 35 35 35 35 35 36 35 34 34 33 31 31 31 32 32 31 30 30 30 30 31 31 31 31 32 33 34 34 35 35 36 37 37
21 21 21 20 20 20 20 19 19 19 19 19 18 18 18 18 19 19 19 19 19 18 18 18 19 18 19 19 19 19 20 20 21 22 23 25 26 28 30 31 33 34 35 36 37 38 38 38 37 35 35 35 35 35 35 35 35 35 35 34 33 33 32 31 32 32 32 32 31 30 31 31 31 30 31 31 32 32 33 34 34 35 36 36 37
21 20 20 20 20 20 19 19 19 19 19 18 18 18 19 19 19 19 19 18 18 17 17 17 18 18 19 19 20 20 20 21 22 23 25 26 27 29 31 32 34 35 36 37 38 38 39 38 37 35 34 34 34 35 34 34 34 34 34 34 33 32 31 32 32 32 32 32 31 31 31 31 31 30 30 31 32 32 32 32 34 34 35 35 36
21 21 21 21 21 20 20 19 19 19 19 19 19 19 19 19 19 19 18 18 18 17 17 17 17 17 18 19 19 20 21 22 23 24 26 27 29 30 32 33 35 36 37 37 38 38 39 38 36 35 34 34 34 34 34 33 34 34 34 33 33 31 31 31 32 32 32 32 32 32 32 31 31 31 30 31 32 32 32 32 33 34 34 35 35
21 21 21 21 21 20 20 20 19 19 19 19 20 20 20 19 19 19 18 18 17 17 17 17 17 17 18 18 19 20 21 22 23 25 27 28 30 31 33 34 36 37 37 38 39 39 38 37 36 35 34 33 33 33 33 33 33 33 33 33 32 31 31 31 31 31 31 32 32 32 32 31 31 31 31 31 32 32 32 32 33 34 35 35 35
21 21 21 21 21 20 20 20 20 20 20 20 20 20 20 20 19 19 18 18 17 17 18 18 18 18 18 18 19 20 21 23 24 26 28 29 31 32 34 35 36 37 38 39 39 39 38 37 36 35 34 33 33 33 32 32 32 32 32 32 32 31 31 31 31 30 31 31 31 32 32 31 31 31 31 32 32 32 32 33 33 34 35 35 35
21 21 21 21 21 21 20 20 20 20 21 21 21 20 20 20 19 19 19 18 18 18 18 18 18 18 19 19 20 21 23 24 26 27 29 31 32 33 35 36 37 38 39 39 39 39 38 36 35 34 34 34 33 33 32 31 31 31 31 31 31 31 30 30 30 30 30 31 31 31 31 31 31 31 32 32 33 33 33 33 34 34 35 35 35
22 21 21 21 21 21 21 21 21 21 21 21 21 21 21 20 20 19 19 19 19 19 19 18 19 19 19 20 22 23 24 26 28 29 30 32 33 34 36 37 38 39 39 39 39 38 37 36 35 34 34 34 33 33 32 31 31 31 31 30 30 30 30 30 30 30 30 30 31 31 31 31 31 31 31 32 33 34 34 34 35 35 35 35 36
21 21 21 21 21 21 21 21 21 21 21 21 21 21 21 21 20 20 20 20 20 20 20 19 20 20 21 22 23 24 26 28 29 30 32 33 34 35 36 38 39 40 40 40 39 38 36 35 34 34 34 34 33 33 33 32 31 31 31 30 30 29 29 29 29 29 30 30 31 31 31 30 30 30 31 32 33 34 34 34 35 35 36 36 36
21 21 21 21 21 21 21 21 21 22 22 21 21 21 21 21 21 21 21 20 20 21 21 21 21 21 22 23 24 26 28 29 31 32 33 33 34 35 37 38 39 40 41 40 39 37 35 35 34 34 33 33 33 33 33 32 32 32 31 30 30 29 29 29 29 29 30 31 31 30 30 30 30 30 30 31 32 33 34 34 35 35 35 36 36
Wind_Direction
249 248 247 247 248 247 247 248 248 248 248 248 248 248 248 248 249 249 250 251 252 253 255 257 259 262 265 268 270 273 276 278 280 281 283 284 285 286 287 287 288 289 291 292 293 294 294 294 294 295 295 295 295 295 295 296 296 296 296 297 297 297 297 298 298 298 298 299 299 299 299 299 299 299 300 300 300 300 300 300 300 300 300 299 299
250 250 248 247 247 247 246 246 246 246 245 245 245 245 245 246 247 248 249 250 252 254 257 260 263 265 268 271 274 276 278 280 281 283 284 285 286 287 288 289 290 291 293 294 294 294 294 294 294 295 295 295 296 296 296 296 297 297 297 298 298 298 298 299 299 299 299 300 299 299 300 300 300 300 301 300 301 301 302 302 302 302 301 301 300
250 249 248 247 246 246 245 245 245 244 244 243 243 242 243 244 245 247 249 251 253 256 259 262 265 267 271 273 276 278 280 281 283 284 285 286 287 288 290 291 292 293 294 294 294 294 294 294 295 296 296 296 296 297 297 298 298 298 298 298 299 299 299 300 300 300 300 300 300 300 300 301 301 301 301 302 302 303 303 304 304 304 303 303 302
248 247 246 246 245 245 245 244 243 242 241 240 240 241 242 243 246 248 250 252 255 257 260 264 267 270 273 276 278 280 281 283 284 286 287 288 289 290 291 292 293 293 294 293 294 294 295 296 297 298 298 298 298 298 298 298 298 298 299 299 300 300 300 301 301 300 300 300 301 301 301 302 302 302 303 303 304 305 306 306 306 306 306 305 304
244 244 243 243 243 242 241 239 238 237 236 237 238 240 242 244 246 249 252 255 258 261 264 267 270 273 276 278 280 281 283 285 286 288 289 290 291 291 292 292 293 294 294 295 296 297 298 299 299 299 298 298 298 299 299 299 300 300 300 300 301 301 301 302 302 302 301 301 302 303 303 304 304 305 305 305 306 307 307 307 307 307 306 307 307
239 238 237 236 235 233 232 232 232 233 234 236 239 241 244 247 251 255 258 261 264 266 269 271 273 275 277 280 282 284 286 287 288 289 290 291 291 292 292 293 295 296 297 298 298 298 299 299 298 299 299 299 299 300 300 301 301 301 301 302 302 302 302 303 303 303 303 303 304 305 305 306 306 307 307 307 307 307 307 307 308 308 308 308 307
231 230 229 228 227 227 227 229 230 233 236 239 242 245 249 253 257 260 263 266 268 270 271 273 275 277 280 282 284 285 287 288 289 290 290 291 292 292 294 296 297 298 298 298 298 298 298 298 299 299 300 300 301 302 302 302 302 302 302 303 303 303 304 304 304 304 305 305 306 306 307 307 308 308 308 309 309 309 308 308 307 306 306 306 306
224 223 223 223 225 226 228 230 233 236 239 242 246 250 254 257 261 264 266 268 270 272 273 275 277 279 281 283 284 286 287 288 289 290 291 292 293 295 296 297 298 298 297 298 298 298 299 300 300 301 302 302 303 303 303 303 303 303 303 304 304 304 305 305 305 306 306 306 307 308 308 308 308 309 309 309 308 308 308 307 306 305 305 306 308
222 222 223 224 227 229 231 234 237 240 243 246 250 253 257 260 262 265 267 269 271 273 275 276 278 280 282 283 285 286 287 288 290 292 293 294 295 296 297 297 298 298 298 299 300 300 301 302 303 303 304 304 304 304 304 304 304 304 304 305 305 306 306 306 306 306 307 308 308 308 308 308 308 308 307 307 307 307 307 307 307 307 307 308 310
226 226 228 229 231 234 236 239 242 245 247 250 253 256 258 261 264 266 268 271 273 275 277 278 280 281 282 284 285 286 288 290 292 294 295 296 297 297 298 298 299 299 300 301 302 303 303 304 305 305 305 305 305 305 304 304 304 304 305 305 306 306 307 307 307 307 308 308 308 307 307 307 307 308 307 307 308 308 309 309 308 308 309 308 309
229 230 231 233 235 237 240 242 245 247 250 252 255 258 260 263 266 268 271 273 274 276 277 279 280 281 282 284 286 288 290 293 295 296 297 297 298 298 299 300 301 302 303 303 304 305 305 305 306 305 305 305 305 305 305 305 305 306 306 306 306 307 307 307 307 307 307 308 308 307 307 308 308 309 309 309 309 309 310 310 310 310 310 310 309
230 232 233 235 237 239 241 244 247 250 253 255 258 260 262 265 267 269 272 273 275 276 277 279 280 282 284 286 289 292 294 296 297 297 297 298 298 300 301 302 304 304 305 305 305 306 305 305 305 305 305 305 305 305 305 306 307 307 307 307 308 308 309 308 307 307 307 308 308 309 309 309 309 309 310 310 310 310 311 311 311 311 311 311 311
232 233 235 236 238 241 243 246 249 252 255 257 259 261 264 266 268 271 272 274 275 277 278 280 282 284 287 290 292 294 295 296 297 297 298 298 300 302 303 304 305 305 305 305 304 304 304 304 304 304 304 304 305 305 306 307 308 308 308 308 308 309 310 309 308 308 309 310 310 310 311 311 311 311 311 311 311 311 311 310 310 311 311 312 312
234 236 237 238 241 244 246 249 252 255 258 261 263 264 266 268 270 271 273 274 276 277 279 282 285 288 291 293 294 295 295 296 297 298 298 299 300 302 303 303 303 303 303 303 303 303 303 303 304 304 304 305 305 305 306 308 309 310 309 308 308 310 310 310 310 311 312 312 312 312 312 312 312 312 312 311 311 311 311 310 311 311 312 314 314
238 239 240 241 243 246 249 252 256 259 261 263 265 267 268 270 271 272 273 275 277 279 282 285 288 291 293 294 296 296 297 298 299 299 299 299 300 300 301 301 301 301 302 302 303 303 304 304 305 305 305 306 306 306 307 309 310 311 310 308 310 312 312 311 312 312 312 312 312 312 312 312 312 312 312 312 312 312 313 313 313 314 314 315 316
242 243 245 245 246 247 250 254 257 259 262 264 266 267 269 271 273 274 275 276 279 281 284 287 290 292 294 295 296 297 298 300 300 301 301 300 300 300 300 300 300 301 302 303 304 304 305 305 305 305 306 306 306 307 308 310 312 311 309 309 311 312 311 311 312 312 312 312 312 312 312 313 313 313 314 314 314 314 315 315 315 315 315 315 314
244 246 247 248 249 250 251 254 257 259 261 263 266 268 270 272 273 274 275 277 279 282 285 288 291 293 294 296 297 297 299 300 300 301 302 301 300 300 301 301 302 303 304 304 305 304 305 305 305 306 307 307 307 308 309 311 312 309 307 309 311 312 311 312 312 312 313 313 313 313 313 313 314 314 315 315 315 315 315 314 315 315 314 313 311
244 247 248 250 251 252 253 255 257 259 261 263 266 268 269 271 272 273 274 277 280 283 287 290 292 294 295 296 297 297 299 299 300 301 302 302 302 302 303 304 304 304 305 305 304 304 305 306 306 307 308 308 309 309 309 312 312 309 308 310 312 312 312 312 312 312 313 313 313 313 313 314 314 315 315 315 315 315 314 314 314 314 313 313 312
244 246 247 249 250 252 253 255 257 259 261 263 265 266 267 268 269 272 275 279 283 286 289 292 293 294 295 295 296 297 298 299 300 301 302 303 303 304 304 304 304 305 305 304 304 304 305 306 307 308 309 309 309 308 309 311 312 310 310 311 312 311 311 311 312 312 312 313 313 313 313 313 314 314 314 314 314 314 314 314 314 314 313 313 313
244 245 246 248 250 251 253 254 256 258 261 262 264 265 266 267 270 274 278 282 286 289 291 292 293 293 294 294 295 296 297 298 299 300 301 302 303 303 303 303 304 305 305 305 305 305 306 307 308 308 308 308 308 308 309 311 311 310 310 310 311 311 311 311 311 311 311 312 312 312 312 311 312 312 312 313 313 313 313 313 314 314 313 314 314
244 245 247 248 249 251 253 254 256 258 260 262 263 265 267 270 273 277 282 285 288 290 291 292 292 292 293 293 294 295 296 296 297 298 300 300 301 301 301 301 302 304 305 305 306 307 308 309 309 309 308 308 308 309 310 311 311 310 310 310 310 310 310 310 311 311 311 311 311 311 310 310 311 311 312 313 313 312 312 312 313 313 313 314 314
245 246 247 248 249 251 252 254 255 257 259 261 263 266 269 273 277 281 285 288 290 290 291 290 290 290 291 292 292 293 294 295 296 297 298 299 299 299 298 299 301 303 303 305 307 308 308 309 309 309 309 308 308 309 309 310 310 310 310 310 310 311 311 311 311 311 311 311 311 311 310 310 311 311 312 312 311 311 311 311 311 312 312 313 313
245 245 246 247 248 250 251 253 255 257 259 262 264 268 272 276 280 284 286 288 289 289 288 288 288 288 289 290 292 293 294 295 296 297 297 298 298 298 297 296 298 299 301 303 305 307 307 308 308 308 308 308 308 308 308 309 309 310 310 310 310 311 311 312 312 312 312 312 311 311 311 310 311 311 310 310 309 309 309 309 309 310 310 311 312
244 244 244 245 247 249 251 253 255 258 261 264 267 271 275 279 283 285 287 287 287 286 285 285 286 287 289 291 292 293 293 294 295 296 297 298 299 299 298 297 296 297 298 301 303 305 306 306 306 306 307 307 307 308 308 309 309 310 310 310 310 311 311 311 311 312 312 312 312 311 310 310 310 310 309 309 308 308 308 307 308 308 309 310 311
242 242 243 244 246 248 251 253 256 259 263 267 271 275 278 281 284 285 285 284 283 283 283 285 286 288 289 290 291 292 293 294 295 296 297 298 299 299 299 299 298 298 299 301 303 304 304 305 305 305 306 307 307 308 308 309 309 309 309 310 310 310 310 311 311 312 312 312 311 310 310 309 309 309 309 309 308 308 307 307 307 308 308 309 310
241 243 244 246 247 249 251 254 257 261 265 269 273 277 279 282 282 282 281 281 281 282 283 285 287 288 288 290 291 292 293 295 296 296 297 298 299 299 299 299 298 299 300 301 302 303 304 304 305 306 307 307 308 308 308 308 309 309 309 309 310 310 310 311 312 312 312 312 311 310 309 309 308 308 308 309 308 308 307 306 307 307 306 306 306
243 245 247 249 250 252 255 257 260 264 268 271 275 277 279 280 279 279 279 279 281 282 284 285 286 287 288 289 291 292 293 294 295 295 296 297 298 298 298 298 298 299 300 302 303 304 305 305 306 306 307 307 308 308 308 308 308 309 309 309 310 310 311 311 312 312 312 312 311 311 310 309 308 308 308 309 309 308 307 306 307 306 305 303 302
243 246 249 252 254 255 258 260 263 266 270 273 275 277 277 278 278 278 278 279 281 282 283 284 286 287 288 290 291 292 293 294 295 295 296 296 297 297 297 297 298 300 301 303 304 305 305 306 306 307 307 307 308 308 308 309 309 309 309 310 310 311 311 312 313 313 313 312 312 312 311 310 309 309 309 309 309 308 307 306 306 306 304 302 301
244 247 249 252 255 257 260 262 266 269 272 274 275 276 276 276 275 276 277 278 279 281 282 284 285 286 288 290 291 292 293 293 293 294 294 295 296 296 297 298 300 301 302 303 304 306 306 307 308 308 308 309 310 310 310 310 310 310 310 310 311 311 312 312 313 313 313 313 313 313 312 311 310 310 309 309 309 308 306 305 305 304 303 301 301
244 246 249 252 255 258 262 266 269 272 274 275 274 274 273 273 273 274 275 277 278 280 281 282 284 286 287 288 289 291 292 293 292 292 294 295 296 298 299 300 302 302 303 304 305 307 307 308 308 309 309 309 310 309 309 310 309 309 310 311 311 311 312 312 313 313 313 313 313 313 313 312 311 310 309 309 309 308 305 303 303 303 301 300 299
244 246 250 253 258 262 266 270 272 273 273 273 272 271 270 271 272 273 275 276 277 278 279 281 282 284 286 287 289 291 292 293 293 293 294 295 297 298 300 302 303 303 304 305 307 308 308 308 309 309 309 309 309 309 308 308 308 308 309 310 310 310 311 311 312 312 312 312 313 313 312 312 312 311 310 309 309 308 304 302 301 301 300 299 298
246 250 254 258 263 267 269 270 271 271 270 270 269 268 269 270 271 273 274 275 276 277 279 281 282 284 287 289 291 292 293 294 295 295 296 298 299 301 304 305 306 306 307 308 309 309 309 310 310 310 309 309 309 308 308 308 308 308 308 309 309 309 310 310 310 310 310 311 312 312 312 312 312 311 310 309 309 308 305 301 300 299 298 297 297
252 256 260 263 267 268 269 269 269 269 268 267 267 268 269 270 271 272 273 274 275 277 279 281 282 284 287 290 292 294 295 295 296 298 300 302 304 306 308 309 309 309 310 311 311 311 311 311 312 311 310 310 309 309 308 308 308 307 308 308 309 309 308 308 308 308 309 310 311 311 311 312 312 311 310 310 309 308 306 302 300 299 297 296 296
257 261 264 266 267 267 267 267 266 266 265 265 266 267 268 269 271 272 272 273 274 276 278 280 282 285 287 290 293 295 296 297 299 301 303 305 307 308 310 310 310 310 311 311 310 310 311 312 312 311 311 310 310 309 309 308 307 307 307 307 308 308 307 307 307 307 308 309 310 311 311 312 312 311 310 310 310 309 307 304 302 300 298 296 296
260 263 264 265 265 265 265 264 263 262 263 263 265 266 267 269 270 270 271 272 274 276 278 281 284 286 289 292 295 297 298 299 301 302 303 305 306 308 309 310 310 310 310 310 310 310 311 311 311 311 310 310 310 309 308 308 307 306 305 305 306 307 307 306 306 307 307 309 310 310 311 312 312 311 311 311 310 309 307 305 303 301 299 297 296
262 263 264 264 265 264 263 261 261 261 261 263 264 265 266 267 267 268 269 271 273 276 279 282 285 288 291 295 298 299 299 299 299 300 301 302 304 306 307 308 309 309 309 309 310 311 312 312 312 311 311 311 310 309 308 307 306 305 304 304 305 306 306 306 306 306 307 308 309 310 310 311 311 311 311 311 311 310 308 306 304 302 300 298 298
263 264 264 265 264 263 261 260 259 260 261 261 262 263 263 263 264 266 268 271 273 277 281 284 287 289 291 294 295 295 295 294 295 296 298 300 303 305 306 307 308 308 309 309 310 311 312 312 311 311 311 310 310 309 308 307 306 305 304 304 305 305 306 306 305 306 307 308 308 308 309 310 311 311 311 312 312 311 309 308 306 304 302 300 299
263 264 264 263 261 259 258 257 258 258 259 260 260 260 260 260 262 265 268 271 275 279 283 286 288 290 291 292 292 291 292 292 293 296 299 301 303 305 306 308 308 309 310 310 311 311 312 311 310 310 310 309 308 308 307 306 305 304 304 303 303 304 305 305 305 306 306 307 307 308 309 310 310 310 311 313 313 311 310 309 307 305 303 302 300
262 262 260 258 256 255 254 255 256 256 257 257 257 257 257 259 262 265 268 272 277 281 285 288 289 290 292 293 293 293 295 296 297 300 303 305 307 309 310 311 312 312 313 314 314 313 313 313 311 311 310 309 308 307 306 305 305 304 303 302 302 303 303 304 304 305 306 306 306 307 308 309 309 309 311 313 313 312 311 310 308 307 305 304 303
261 259 257 255 254 253 253 254 254 255 255 255 254 255 256 259 263 266 270 275 279 283 285 286 287 289 291 292 293 295 298 300 302 305 308 310 312 313 314 315 316 316 317 317 317 316 315 314 314 312 311 309 308 307 306 305 304 303 302 302 301 301 301 301 302 304 304 305 305 306 307 308 308 308 311 312 312 313 312 311 310 308 307 306 306
258 256 254 253 251 251 251 251 252 253 253 252 252 254 257 261 264 269 273 277 280 283 283 284 285 287 289 290 292 296 299 302 304 308 310 312 314 315 316 317 317 318 318 318 317 316 316 316 315 313 312 310 308 307 306 305 304 304 303 302 301 300 300 299 300 301 302 304 305 306 307 307 307 308 310 311 310 311 312 312 311 310 309 308 309
253 251 250 250 250 250 251 251 252 251 250 250 253 256 260 263 267 271 274 277 279 280 280 281 282 284 286 289 293 297 300 303 306 309 312 314 315 317 317 318 318 319 319 318 317 316 316 316 315 313 311 310 308 307 306 306 305 304 303 303 302 300 299 297 297 298 299 302 305 306 306 306 307 308 309 309 309 310 311 312 312 312 311 311 311
250 250 250 250 250 251 252 252 251 250 250 252 256 259 262 266 270 272 275 276 276 276 277 277 279 283 286 290 294 298 302 305 309 311 314 315 317 318 319 319 320 320 320 319 318 317 317 316 314 313 311 309 308 307 307 306 305 304 304 303 302 300 299 297 295 295 296 299 302 304 305 305 306 308 308 308 307 308 310 311 311 312 312 313 313
250 250 250 250 251 251 252 251 249 249 252 255 258 261 265 268 271 273 274 275 274 273 272 273 277 282 287 291 296 300 304 308 311 313 315 317 319 320 320 321 322 322 321 320 319 318 317 316 314 313 312 310 309 308 308 307 306 305 304 303 302 300 298 296 294 294 295 297 299 301 302 304 306 307 307 307 307 307 308 310 310 311 313 313 314
249 248 249 250 251 251 251 250 250 251 254 257 259 263 266 269 271 273 273 271 270 269 269 271 276 281 285 291 296 300 305 308 311 314 316 318 320 321 322 322 323 323 322 321 320 318 317 316 315 313 312 311 310 309 309 309 308 306 305 304 303 301 299 296 295 295 295 296 296 298 299 302 304 306 306 306 306 306 307 308 309 310 312 313 314
249 249 250 251 251 251 251 250 251 253 256 258 262 265 268 270 271 272 270 267 266 266 268 272 276 280 284 290 295 299 303 308 311 314 317 319 320 321 322 323 323 323 323 322 320 319 317 316 315 314 312 311 310 310 310 309 308 306 305 304 304 302 300 298 297 297 297 296 296 296 297 299 302 303 304 305 305 306 307 307 308 309 311 312 314
248 249 250 250 251 251 250 250 252 255 257 261 264 266 268 270 270 268 266 264 263 264 268 272 276 280 284 289 293 298 303 307 311 314 316 318 320 321 322 323 323 323 323 322 321 319 317 316 315 314 313 312 311 311 310 309 307 306 305 304 304 303 301 300 300 299 298 297 297 297 297 298 300 301 302 303 303 304 306 306 307 308 310 312 314
248 249 250 250 251 251 251 252 254 257 260 263 265 267 269 269 267 264 262 261 261 264 268 272 275 280 284 289 293 298 303 307 311 313 315 317 319 320 321 323 323 323 323 322 320 319 317 316 314 314 313 312 312 311 310 309 308 307 306 305 304 303 303 302 302 301 300 299 299 299 299 299 300 300 300 301 301 302 304 305 305 307 309 311 314
249 249 250 251 251 251 252 254 256 259 261 263 265 267 267 266 264 261 259 259 261 265 269 272 275 280 284 289 295 300 304 307 311 313 314 316 318 319 321 322 323 323 323 322 321 319 317 315 314 314 313 312 312 312 311 310 309 308 307 306 305 304 304 303 302 302 301 300 300 300 300 300 301 300 300 300 300 300 302 303 304 306 308 311 313
248 249 250 251 251 252 254 255 257 259 261 263 265 267 266 264 261 259 258 260 264 268 271 273 276 280 285 290 296 301 304 308 310 312 313 315 317 318 320 322 322 322 323 323 321 319 317 315 314 313 312 312 312 312 311 310 310 309 309 308 307 306 305 304 303 303 302 301 301 301 301 302 301 301 300 300 299 299 301 302 303 305 308 310 312
248 249 250 251 252 254 255 256 258 260 262 264 265 265 263 261 258 257 259 262 266 269 272 274 277 282 287 292 297 301 305 308 310 312 313 315 316 318 320 321 322 322 323 322 321 319 316 314 313 312 312 312 312 312 311 311 310 310 310 310 309 307 306 305 304 303 303 302 302 303 303 303 303 302 301 300 300 299 300 301 303 305 307 309 311